Flag for Germany Weather past 2 weeks in Witzenhausen, Hesse, Germany

Now
63 °F

Passing clouds.


Feels Like: 63 °F
Forecast: 57 / 74 °F
Wind: 5 mph from North

Location: Kassel / Calden

Current Time: Jul 24, 2014 at 11:00:30 PM

Latest Report: Jul 24, 2014 at 9:50 PM


Visibility: N/A

Pressure: 30.01 "Hg

Humidity: 83%

Dew point: 57 °F

Location of WitzenhausenLocation

Historic Weather in Witzenhausen — Graph

°F

Witzenhausen temperature yesterday

Maximum temperature yesterday: 81 °F (at 1:20 PM)
Minimum temperature yesterday: 61 °F (at 5:50 AM)
Average temperature yesterday: 72 °F

Past Weeks' High & Low Weather Summary

 TemperatureHumidityPressure
High90 °F (Jul 19, 4:50 PM)100% (Jul 9, 9:50 PM)30.21 "Hg (Jul 9, 9:50 PM)
Low55 °F (Jul 10, 5:50 AM)31% (Jul 19, 1:20 PM)29.71 "Hg (Jul 9, 9:20 PM)
Average70 °F69%29.97 "Hg
* Reported Jul 9 9:20 PM — Jul 24 9:50 PM, Witzenhausen, Weather by CustomWeather, © 2014

Note: Actual official high and low records may vary slightly from our data, if they occured in-between our weather recording intervals... More about our weather records

Advertising

Witzenhausen weather history for previous 24 hours

 ConditionsComfort  
Time TempWeatherWind HumidityBarometerVisibility
9:50 PM
Jul 24
63 °FPassing clouds.5 mph83%30.01 "HgN/A
9:20 PM64 °FPassing clouds.6 mph78%30.01 "HgN/A
8:50 PM66 °FSunny.5 mph78%30.01 "Hg10 mi
8:20 PM66 °FSunny.8 mph83%30.01 "Hg10 mi
7:50 PM68 °FPassing clouds.6 mph83%29.98 "HgN/A
7:20 PM68 °FPassing clouds.6 mph83%30.01 "HgN/A
6:50 PM66 °FClear.6 mph83%30.01 "HgN/A
6:20 PM64 °FPassing clouds.6 mph88%30.01 "HgN/A
5:50 PM63 °FPassing clouds.3 mph88%30.01 "HgN/A
5:20 PM63 °FScattered clouds.5 mph88%30.01 "HgN/A
4:50 PM63 °FLight rain. Scattered clouds.9 mph88%30.01 "Hg4 mi
4:20 PM66 °FThunderstorms. Scattered clouds.9 mph83%30.01 "Hg5 mi
3:50 PM70 °FThundershowers. Scattered clouds.5 mph69%30.01 "HgN/A
3:20 PM66 °FScattered clouds.2 mph68%30.01 "HgN/A
2:50 PM66 °FThunderstorms. Scattered clouds.7 mph60%30.01 "HgN/A
2:20 PM75 °FScattered clouds.9 mph50%30.01 "HgN/A
1:50 PM73 °FScattered clouds.10 mph53%30.01 "HgN/A
1:20 PM73 °FScattered clouds.8 mph53%30.01 "HgN/A
12:50 PM73 °FPassing clouds.12 mph53%30.01 "HgN/A
12:20 PM73 °FPassing clouds.12 mph50%30.01 "HgN/A
11:50 AM72 °FPassing clouds.12 mph53%30.01 "HgN/A
11:20 AM70 °FPassing clouds.8 mph60%30.01 "HgN/A
10:50 AM68 °FPassing clouds.6 mph64%30.04 "HgN/A
10:20 AM68 °FPassing clouds.6 mph64%30.04 "HgN/A
9:50 AM66 °FPassing clouds.5 mph68%30.04 "HgN/A
9:20 AM64 °FSunny.5 mph73%30.04 "Hg10 mi
8:50 AM64 °FSunny.5 mph73%30.04 "Hg10 mi
8:20 AM64 °FPassing clouds.5 mph73%30.04 "HgN/A
7:50 AM63 °FPassing clouds.3 mph73%30.01 "HgN/A
7:20 AM61 °FSunny.3 mph77%30.04 "Hg10 mi
6:50 AM57 °FSunny.1 mph88%30.01 "Hg10 mi
Weather by CustomWeather, © 2014

See weather overviewHow to use our weather pages